This is the latest recevied weather packets stored in our database for station/object AC0YE. If no packets are shown the sender has not sent any weather packets the latest 10 day(s).
| Time | Temp. | Humidity | Pressure | Rain* | Wind** | Luminosity | Snow |
|---|---|---|---|---|---|---|---|
| 1777328437 | 22.22° C | 66% | 1000.4 hPa | 0 mm | - | - | - |
| 1777326317 | 22.78° C | 69% | 1000.3 hPa | 0 mm | - | - | - |
| 1777325437 | 22.78° C | 68% | 1000.3 hPa | 0 mm | - | - | - |
| 1777324837 | 23.33° C | 67% | 1000.3 hPa | 0 mm | - | - | - |
| 1777323917 | 23.33° C | 69% | 1000 hPa | 0 mm | - | - | - |
| 1777322117 | 22.78° C | 70% | 1000.1 hPa | 0 mm | - | - | - |
| 1777321837 | 22.78° C | 72% | 1000.2 hPa | 0 mm | - | - | - |
| 1777321217 | 22.22° C | 71% | 1000.3 hPa | 0 mm | - | - | - |
| 1777320037 | 22.78° C | 71% | 1000.2 hPa | 0 mm | - | - | - |
| 1777317917 | 21.67° C | 74% | 1000.4 hPa | 0 mm | - | - | - |
| 1777316117 | 21.11° C | 78% | 1000.5 hPa | 0 mm | - | - | - |
| 1777311617 | 18.89° C | 83% | 1001.2 hPa | 0 mm | - | - | - |
| 1777309817 | 19.44° C | 83% | 1000.3 hPa | 0 mm | - | - | - |
| 1777306817 | 16.67° C | 92% | 998.2 hPa | 0 mm | - | - | - |
| 1777304416 | 15° C | 96% | 997.8 hPa | 0.76 mm | - | - | - |
| 1777302617 | 14.44° C | 96% | 995.2 hPa | 2.54 mm | - | - | - |
| 1777300516 | 14.44° C | 96% | 1002.8 hPa | 7.87 mm | - | - | - |
| 1777297256 | 14.44° C | 94% | 1005.5 hPa | 8.38 mm | - | - | - |
| 1777296616 | 14.44° C | 94% | 1005.6 hPa | 7.37 mm | - | - | - |
| 1777296316 | 14.44° C | 94% | 1005.5 hPa | 6.6 mm | - | - | - |
| 1777294816 | 15° C | 91% | 1005.2 hPa | 1.52 mm | - | - | - |
| 1777293316 | 15° C | 87% | 1004.9 hPa | 0.51 mm | - | - | - |
| 1777293016 | 15.56° C | 87% | 1005.1 hPa | 0.25 mm | - | - | - |
| 1777291516 | 15° C | 87% | 1005.1 hPa | 0.25 mm | - | - | - |
| 1777291236 | 15° C | 86% | 1004.9 hPa | 0.25 mm | - | - | - |
* Rain latest hour (hover to see other rain measurements)
** Current wind speed in m/s (hover to see current wind gust speed)